Location: Hernandez
(10.3704°N, 67.2181°W)
Time: 05:54:39
(UTC+00:00)

Cosmos 2074 Rocket - Pass Details

Date: 13 April 2024
Orbit: 966 x 987 km, 82.9° (Epoch: 25 May)

Event Time Altitude Azimuth Distance (km) Brightness Sun altitude
Rises 23:04:05 0° 3° (N) 3,656 7.1 -6.7°
Reaches altitude 10° 23:06:38 10° 6° (N) 2,706 6.4 -7.4°
Maximum altitude 23:12:44 61° 86° (E) 1,091 4.0 -8.8°
Drops below altitude 10° 23:18:49 10° 165° (SSE) 2,699 6.1 -10.3°
Sets 23:21:20 0° 169° (S) 3,645 6.8 -10.9°
